Location: Voyageurs National Park
(48.5020°N, 92.9292°W)
Time: 19:36:45
(UTC-05:00)

Cosmos 1850 Rocket - Pass Details

Date: 19 January 2018
Orbit: 755 x 785 km, 74.0° (Epoch: 21 May)

Event Time Altitude Azimuth Distance (km) Brightness Sun altitude
Rises 06:32:35 0° 218° (SW) 3,227 7.0 -13.4°
Reaches altitude 10° 06:35:01 10° 224° (SW) 2,310 6.2 -13.0°
Maximum altitude 06:40:06 49° 299° (WNW) 993 4.2 -12.2°
Drops below altitude 10° 06:45:17 10° 14° (NNE) 2,343 6.5 -11.4°
Sets 06:47:46 0° 20° (NNE) 3,279 7.3 -11.0°
